Location: Sungai Anya
(2.6167°N, 114.0500°E)
Time: 19:44:06
(UTC+00:00)

Okean O Rocket - Pass Details

Date: 19 October 2021
Orbit: 623 x 644 km, 98.2° (Epoch: 07 December)

Event Time Altitude Azimuth Distance (km) Brightness Sun altitude
Rises 10:42:02 0° 156° (SSE) 2,905 4.9 -8.6°
Reaches altitude 10° 10:44:19 10° 148° (SSE) 1,995 4.0 -9.2°
Maximum altitude 10:48:25 42° 78° (ENE) 897 1.9 -10.2°
Drops below altitude 10° 10:52:29 10° 7° (N) 1,984 4.0 -11.2°
Sets 10:54:45 0° 0° (N) 2,887 4.9 -11.8°
